RUNNER RESULTSRunner results by name. Search our database. FIND YOURS »

Results of the Run for the Taps 7 Mile Race – September 24, 2016 – Pisgah Brewing – Black Mountain NC

2016_RTTT_pisgah_carolinaRunner

Congratulations to all who finished this final race in the Race to the Taps Series.  Click here for age groups. Results courtesy of Right on Time Productions.

PLACE NAME GENDER AGE TIME PACE
1 Ethan Doherty M 25 41:57 6:00
2 Doug Daniel M 29 46:02 6:35
3 Jeff Trantham M 48 47:09 6:45
4 Dustin Cooper M 40 47:37 6:48
5 Robert Jameson M 33 48:48 6:59
6 Mitch Mull M 32 49:17 7:03
7 Brian Carlinnia M 46 49:46 7:07
8 Paul Curtin M 58 50:30 7:13
9 Ben Duke M 39 50:31 7:13
10 Laura Clarke F 34 52:11 7:28
11 Bryan Jones M 44 52:49 7:33
12 Chad Neuburger M 39 53:11 7:36
13 Matt Reynolds M 28 54:12 7:45
14 Marc Edwards M 51 54:16 7:46
15 Mark Huegerich M 39 54:46 7:50
16 Allison Jameson F 28 55:29 7:56
17 Michael Murphy M 54 55:41 7:58
18 Jason McGill M 34 55:49 7:59
19 Kaylee Prochilo F 29 56:08 8:01
20 Dan Passarelli M 59 56:44 8:07
21 Sean Perrow M 37 57:10 8:10
22 Blake Smith M 43 57:19 8:12
23 Jeremy Pike M 41 57:51 8:16
24 John Michael Kledis M 38 58:05 8:18
25 Lonnie Lepore M 64 58:16 8:20
26 Matthew Hill M 39 58:22 8:21
27 Brandon Turner M 37 58:24 8:21
28 Andrew Wallace M 37 59:12 8:28
29 Lucas Tasman Kinsey M 13 59:44 8:32
30 Patrick Meek M 51 59:48 8:33
31 Jorge Quintana M 33 59:58 8:34
32 Eva Kovacs F 49 1:00:02 8:35
33 Craig Gilbert M 57 1:00:05 8:35
34 Natalie Chotiner F 26 1:00:15 8:37
35 Edwin Drake M 39 1:00:17 8:37
36 Doug Draper M 46 1:00:22 8:38
37 Brett Harris M 46 1:00:30 8:39
38 Stephenie Kelly F 44 1:00:46 8:41
39 Duncan Wallace M 61 1:00:47 8:41
40 Steve Manfred M 59 1:00:51 8:42
41 Derek Campano M 23 1:01:03 8:44
42 Joseph Emison M 36 1:01:06 8:44
43 Matthew Cook M 46 1:01:18 8:46
44 Colette Whitney F 24 1:01:48 8:50
45 Kevin Charles Bierlich M 26 1:01:49 8:50
46 Trai Dunn M 38 1:02:00 8:52
47 Melissa Kledis F 35 1:02:05 8:53
48 Justin Berger M 38 1:02:26 8:56
49 Leigh Hutchins F 32 1:02:33 8:57
50 Jasper Schall M 8 1:02:35 8:57
51 Joe Yarkovich M 35 1:02:45 8:58
52 Brian Kinkade M 26 1:02:52 8:59
53 Chad Messer M 31 1:02:54 9:00
54 Ron Smith M 50 1:03:05 9:01
55 Anthony Prochilo M 29 1:03:23 9:04
56 Jessica Tripp F 29 1:03:28 9:04
57 Michael Adams M 31 1:03:31 9:05
58 Nicki Wooding F 41 1:03:43 9:07
59 Hal Hemme M 65 1:04:03 9:09
60 Christopher Brunton M 30 1:04:06 9:10
61 Angela Derosier F 34 1:04:30 9:13
62 Jonathan Smith M 29 1:04:52 9:16
63 Miriam Nelson F 40 1:04:57 9:17
64 Jeremy Morris M 36 1:04:58 9:17
65 Corey Alexander M 35 1:05:02 9:18
66 Tim Splain M 53 1:05:03 9:18
67 Jenn Armen F 55 1:05:16 9:20
68 Amanda Simays F 28 1:05:25 9:21
69 Tami Grossens F 41 1:06:16 9:28
70 Erin Mishoe F 36 1:06:16 9:28
71 Lori Stresemann F 50 1:06:23 9:29
72 Jay Clarke M 49 1:06:31 9:31
73 Doug Arfmann M 36 1:06:59 9:35
74 Jami Fletcher F 35 1:07:01 9:35
75 Steven Sizemore M 51 1:07:06 9:36
76 April Dunn F 30 1:07:11 9:36
77 Guy Ross M 55 1:07:19 9:37
78 Amy Davis F 33 1:07:47 9:41
79 Matthew Harvey M 35 1:08:06 9:44
80 Zach Benton M 22 1:08:22 9:46
81 Jared Tomberlin M 25 1:08:26 9:47
82 Chris Collins M 40 1:08:32 9:48
83 Andrew Osiecki M 41 1:08:41 9:49
84 Kathleen Lorens F 27 1:08:54 9:51
85 Kate Caton F 30 1:09:12 9:54
86 Kym McCarson F 52 1:09:13 9:54
87 Holly Braswell F 34 1:09:26 9:56
88 Gabriela Bermingham F 39 1:09:49 9:59
89 Christine Duke F 41 1:09:53 9:59
90 Nan Huegerich F 39 1:09:54 10:00
91 Crystal Deloughery F 43 1:10:11 10:02
92 Mack Tobias M 42 1:10:21 10:03
93 Tina Wallace F 48 1:10:27 10:04
94 Camille Edmonds F 36 1:10:30 10:05
95 Kristi Miller F 48 1:10:43 10:07
96 Scott MacGregor M 54 1:10:48 10:07
97 Emma Wilson F 38 1:10:51 10:08
98 Jen Brock F 37 1:10:51 10:08
99 Susanah Doucet F 44 1:11:56 10:17
100 bib 453 F 99 1:11:57 10:17
101 Jamie Nakamura F 31 1:11:59 10:17
102 Kimber McKay F 32 1:11:59 10:17
103 Briar Buchanan F 23 1:12:10 10:19
104 Seth Bird M 51 1:12:23 10:21
105 Peter Billingsley M 54 1:12:37 10:23
106 April Worley F 42 1:12:48 10:24
107 Michael Salomone M 51 1:13:04 10:27
108 Banks Griffith M 55 1:13:38 10:32
109 David Gebbie M 56 1:13:42 10:32
110 Joan Smith F 55 1:13:42 10:32
111 Marcella Lanius F 28 1:13:42 10:32
112 Jenna Rose F 31 1:13:43 10:32
113 Seth Cooley M 32 1:13:44 10:32
114 Lindsay Moody F 39 1:13:50 10:33
115 Kinley Sanborn F 26 1:13:51 10:33
116 Frank Elliott M 68 1:14:11 10:36
117 Jon Temple M 32 1:14:31 10:39
118 Wendy Billingsley F 46 1:14:36 10:40
119 Kathryn Bailey F 37 1:14:51 10:42
120 Katie Morrison F 35 1:14:58 10:43
121 Irene Park F 28 1:14:58 10:43
122 William Davidson M 61 1:15:07 10:44
123 Kirsten Billingsley F 26 1:15:12 10:45
124 Carol Clarke F 48 1:15:36 10:48
125 Melissa Drennan F 46 1:15:50 10:50
126 Doug Coger M 51 1:16:29 10:56
127 Matthew Barnes M 29 1:16:34 10:57
128 Karen Griffin F 56 1:16:39 10:57
129 Andrew Davidson M 33 1:16:40 10:58
130 Melissa Fish F 38 1:16:41 10:58
131 Karen Reynolds F 38 1:16:52 10:59
132 Jessica West F 37 1:16:53 10:59
133 Hallie Saunders F 51 1:16:56 11:00
134 Hannah Cate F 24 1:17:02 11:01
135 Jake Scheffers M 29 1:17:06 11:01
136 Whitney Adams F 31 1:17:20 11:03
137 Tammy Garrity F 49 1:17:57 11:09
138 Jonathan Brooks Dutton M 37 1:18:05 11:10
139 Dawn Klug F 48 1:18:12 11:11
140 Chris Foote M 29 1:18:13 11:11
141 David Aaronson M 44 1:18:21 11:12
142 KATHY Stahly F 66 1:18:59 11:17
143 Joanne Wilcox F 35 1:19:11 11:19
144 Will Yeiser M 41 1:19:19 11:20
145 Kelly Yeiser F 41 1:19:19 11:20
146 Gay Reilly F 54 1:19:19 11:20
147 Robert Jones M 52 1:19:19 11:20
148 Elizabeth Bowles F 44 1:19:35 11:23
149 Kate Rogers F 30 1:20:15 11:28
150 KELLY Reither F 28 1:20:18 11:29
151 Mary Arfmann F 35 1:20:21 11:29
152 Glenn Nickerson M 63 1:20:23 11:29
153 Laura Lewellin F 29 1:20:44 11:32
154 Don Conway M 62 1:20:53 11:34
155 David Fields M 31 1:20:59 11:35
156 Kim Coggins F 55 1:21:06 11:35
157 Susie Gilbert F 54 1:21:10 11:36
158 Sara Farmer F 35 1:21:12 11:36
159 Jenn Fieldman F 42 1:21:12 11:36
160 Autumn Carroll F 29 1:21:32 11:39
161 MARSHALL Cobb M 23 1:22:14 11:45
162 John Hart III M 39 1:22:24 11:47
163 Melanie Mikusa F 56 1:22:25 11:47
164 Ken Compton M 64 1:22:36 11:48
165 Josh Herr M 39 1:22:46 11:50
166 Holly Baker F 33 1:22:50 11:50
167 Robin Carter F 39 1:22:54 11:51
168 Richard Deloughery M 44 1:23:03 11:52
169 Amanda Deweese F 35 1:23:07 11:53
170 Karen Flanders F 54 1:23:15 11:54
171 Suzanne Avett F 37 1:23:20 11:55
172 Katie Taneyhill F 32 1:23:25 11:55
173 Brent Sullivan M 63 1:23:29 11:56
174 Alexis Johnson F 41 1:23:43 11:58
175 Kimberly Clark F 36 1:24:11 12:02
176 Phyllis Kapsalis F 48 1:24:16 12:03
177 Sally LeClaire F 51 1:24:25 12:04
178 Travis Gause M 27 1:24:28 12:04
179 Arthur Chwalek M 57 1:24:31 12:05
180 Brian Wyatt M 43 1:24:32 12:05
181 Jackie Merrifield F 61 1:24:55 12:08
182 Ashley Toler F 39 1:25:11 12:11
183 Jake Deyoung M 26 1:25:11 12:11
184 Kim Walker F 61 1:25:12 12:11
185 Brandon Moore M 35 1:25:19 12:12
186 Cody Davidson M 37 1:25:19 12:12
187 April Monnich F 43 1:25:29 12:13
188 Lisa Decarlo F 50 1:25:29 12:13
189 Christa Currie F 28 1:26:03 12:18
190 Ashlee Keller F 24 1:26:33 12:22
191 Courtney Setzer F 27 1:27:00 12:26
192 Caroline Rodier F 43 1:27:01 12:26
193 Robert Rodier M 46 1:27:01 12:26
194 Cindy Herrington F 56 1:27:09 12:27
195 Grace Harris F 34 1:27:10 12:28
196 Catherine Rhodarmer F 39 1:27:27 12:30
197 Yee Kao M 36 1:27:36 12:31
198 Haley Deloach F 26 1:27:39 12:32
199 Sheri Straw F 49 1:27:57 12:34
200 Catlyn Dennis F 28 1:28:07 12:36
201 Nicole Cook F 44 1:28:14 12:37
202 Kelly Brown F 38 1:28:30 12:39
203 Susan Herman F 61 1:28:30 12:39
204 Terri Lechner F 48 1:28:36 12:40
205 Max Reed M 55 1:28:43 12:41
206 James Rice M 47 1:28:47 12:41
207 Kristin Lupfer F 33 1:29:25 12:47
208 Dale Reed M 40 1:29:27 12:47
209 Kelly Sine F 25 1:29:27 12:47
210 Joy Lance Wright F 52 1:29:37 12:49
211 Siobhan Treanor F 41 1:29:41 12:49
212 Ashley Osmunson F 29 1:29:59 12:52
213 Sarah Tarpey F 51 1:30:00 12:52
214 Aaron Lafalce M 33 1:30:26 12:56
215 ROBERT Wood M 74 1:30:36 12:57
216 Samantha Ziglar F 44 1:30:38 12:57
217 Laura Beauchesne F 29 1:30:40 12:58
218 Laura Donohoe F 56 1:31:04 13:01
219 Ben Covington M 65 1:31:06 13:01
220 Lauren Keely Carlisle F 45 1:31:09 13:02
221 Misty Garren F 40 1:31:26 13:04
222 Katie Descieux F 32 1:31:27 13:04
223 Reagan Kornegay F 38 1:31:46 13:07
224 Amy Brooks F 34 1:32:14 13:11
225 Caron Hope F 36 1:32:18 13:12
226 Sonja Palmer F 29 1:32:58 13:17
227 Brandon Abee M 39 1:34:06 13:27
228 Penny Meccia F 49 1:34:13 13:28
229 Michael Ramos M 49 1:34:13 13:28
230 Angela Vaughan F 46 1:34:15 13:28
231 Beckett Arnold M 42 1:35:06 13:35
232 Kjersten Smith F 38 1:35:24 13:38
233 Patty Sevenz-Coleman F 40 1:35:24 13:38
234 Sharon Washney F 46 1:35:26 13:38
235 Kelly Coward F 48 1:35:39 13:40
236 Geoff Kinsey M 46 1:35:46 13:41
237 Micky Haywood F 45 1:35:46 13:41
238 Tanya Hiller F 45 1:35:49 13:42
239 Jan MacGregor F 51 1:36:30 13:48
240 Ron Merrifield M 59 1:38:19 14:03
241 Ashley Sedlak-Propst F 29 1:39:18 14:12
242 Suzanne Farrell F 50 1:39:28 14:13
243 Lydia Daly F 42 1:40:36 14:23
244 Jonathan Lanier M 27 1:41:34 14:31
245 Zeke Griffin199 M 18 1:41:37 14:31
246 Crystl Zimmer F 34 1:41:56 14:34
247 Lucinda Sackett F 58 1:42:02 14:35
248 Arlene Young F 56 1:42:45 14:41
249 Katherine Owenby F 31 1:42:49 14:42
250 Jan Sturgis F 60 1:43:43 14:49
251 Karen Dellinger F 33 1:43:58 14:52
252 Mollie Swann-Deyoung F 26 1:44:04 14:52
253 Erin Bowman F 32 1:44:35 14:57
254 Brooke Sanders F 33 1:44:47 14:59
255 Erika Wilson F 24 1:50:16 15:46
256 Kay Harvey F 32 1:50:33 15:48
257 Marnette Colborne F 44 1:51:08 15:53
258 Brenda Billingsley F 49 1:51:09 15:53
259 Nick Rodriguez M 27 1:51:15 15:54
260 Rachel Grandis F 25 1:51:15 15:54
261 Missy Redmon F 45 1:51:25 15:55
262 Ronda Lynne Kornegay F 41 1:51:25 15:55
263 Anne Garner F 71 1:51:41 15:58
264 Amy Johnson F 37 1:52:04 16:01
265 Tyler Donaldson M 39 1:55:32 16:31
266 Crystal Perrow F 33 1:56:50 16:42

Leave a Reply

This site uses Akismet to reduce spam. Learn how your comment data is processed.